Regional Weather Roundup
Issued by NWS

Home | Current Version | Previous Version | Graphics & Text | Print | Product List | Glossary On
Versions: 1 2 3 4 5 6 7 8 9 10 11 12 13 14 15 16 17 18 19 20 21 22 23 24 25 26 27 28 29 30 31 32 33 34 35 36 37 38 39 40 41 42 43 44 45 46 47 48 49 50
000
ASUS43 KMPX 301910
RWRMN
WEATHER ROUNDUP FOR MINNESOTA
NATIONAL WEATHER SERVICE TWIN CITIES/CHANHASSEN MN
200 PM CDT THU JUL 30 2015


NOTE: "FAIR" INDICATES FEW OR NO CLOUDS BELOW 12,000 FEET WITH NO
SIGNIFICANT WEATHER AND/OR OBSTRUCTIONS TO VISIBILITY. N/A MEANS
CURRENT SKY AND/OR WEATHER CONDITIONS ARE NOT AVAILABLE.

MNZ060>063-068>070-302000-
   Twin Cities Metro

CITY           SKY/WX    TMP DP  RH WIND       PRES   REMARKS
TWIN CITIES    SUNNY     84  56  38 NW15G23   30.05S
ST PAUL        SUNNY     83  56  39 NW17G25   30.04F
CRYSTAL        SUNNY     84  56  38 W17G25    30.04S
BLAINE         MOSUNNY   84  55  37 W18G24    30.04F
LAKEVILLE      SUNNY     81  57  44 W15G21    30.07S
EDEN PRAIRIE   SUNNY     83  57  41 NW16G23   30.06S
SOUTH ST PAUL  SUNNY     84  53  34 W14G23    30.05S
LAKE ELMO      FAIR      81  59  47 W13G18    30.05F
$$
MNZ001>005-007-008-013>017-022>024-027-028-302000-
   Northwest Minnesota

CITY           SKY/WX    TMP DP  RH WIND       PRES   REMARKS
BEMIDJI        SUNNY     79  56  44 W17G23    29.99F
HALLOCK        MOSUNNY   81  54  39 NW14G24   29.96S
ROSEAU         SUNNY     79  61  53 W13G26    29.93S
WARROAD        MOSUNNY   79  61  53 W14G24    29.92S
THIEF RVR FALL MOSUNNY   79  55  44 W15G22    29.99S
CROOKSTON      SUNNY     81  54  39 NW22G28   30.00F
FOSSTON        MOSUNNY   77  52  41 W22G30    30.01F
DETROIT LAKES  SUNNY     79  54  41 NW18G28   30.07S
MOORHEAD       SUNNY     79  57  47 NW16G23   30.05S
PARK RAPIDS    SUNNY     81  53  37 W21G31    30.02F
MAHNOMEN       MOCLDY    77  60  56 W16G22    30.02S
$$
MNZ006-009>011-018-025>026-302000-
   North Central Minnesota

CITY           SKY/WX    TMP DP  RH WIND       PRES   REMARKS
BAUDETTE       SUNNY     78  57  48 W21G26    29.92S
FLAG ISLAND    MOSUNNY   75  55  50 W15G24    29.87F
INTL FALLS     PTSUNNY   74  58  57 W9G22     29.90S
WASKISH        SUNNY     79  63  57 W15       29.94F
BIG FORK       MOSUNNY   79  55  44 W13G20    29.95S
LONGVILLE      SUNNY     79  55  44 W10G23    30.00S
GRAND RAPIDS   MOSUNNY   77  52  41 W16G30    29.98S
CRANE LAKE     MOSUNNY   73  55  53 NW8       29.91F
ORR            MOSUNNY   79  55  44 W12G18    29.89F
COOK           MOSUNNY   73  63  68 W7        29.92F
WALKER         FAIR      77  55  45 W14G25    30.00S
$$
MNZ012-019>021-037-302000-
   Northeast Minnesota

CITY           SKY/WX    TMP DP  RH WIND       PRES   REMARKS
DULUTH         PTSUNNY   80  52  37 NW20G35   29.95S
ELY            MOSUNNY   75  54  46 W15G22    29.91S
HIBBING        PTSUNNY   79  54  41 W18G31    29.94F
EVELETH        MOSUNNY   77  52  41 W21G30    29.93F
DULUTH HARBOR  MOSUNNY   82  57  42 W20G25    29.92F
TWO HARBORS    PTSUNNY   73  64  73 CALM      29.91S
SILVER BAY     PTSUNNY   73  61  64 W5        29.90F
GRAND MARAIS     N/A     77  52  41 VRB6      29.85S
G MARAIS ARPRT PTSUNNY   70  48  46 W9        29.91S
$$
MNZ029>031-032-039>041-046>048-054>057-064-302000-
   West Central Minnesota

CITY           SKY/WX    TMP DP  RH WIND       PRES   REMARKS
FERGUS FALLS   SUNNY     81  55  41 W15       30.06S
WHEATON        SUNNY     79  59  50 W8        30.10S
MORRIS         SUNNY     81  61  50 W10       30.08F
ALEXANDRIA     SUNNY     80  57  45 W15       30.10F
ELBOW LAKE     FAIR      79  58  49 W8        30.08S
WADENA         SUNNY     81  54  39 NW18G26   30.05F
GLENWOOD       SUNNY     81  55  41 W12G17    30.10S
APPLETON       SUNNY     82  55  39 NW8       30.09F
BENSON         SUNNY     82  54  36 N12       30.09F
ORTONVILLE     SUNNY     82  55  39 W3        30.10S
MADISON        SUNNY     84  50  30 W3        30.10F
WILLMAR        FAIR      82  55  39 W12       30.11F
$$
MNZ033>034-036-042>043-049>051-058-059-302000-
   Central Minnesota

CITY           SKY/WX    TMP DP  RH WIND       PRES   REMARKS
ST CLOUD       SUNNY     83  56  39 W15G25    30.05F
SAUK CENTRE    FAIR      79  56  44 W12G18    30.08F
PAYNESVILLE    SUNNY     79  53  40 SW12G17   30.09F
AITKIN         MOSUNNY   81  57  44 W9        29.99S
PINE RIVER     SUNNY     79  55  44 NW10G22   30.04F
BRAINERD       SUNNY     81  51  35 W20G29    30.02F
STAPLES        SUNNY     79  52  38 W21G28    30.05S
LONG PRAIRIE   FAIR      79  54  41 W12       30.08S
LITTLE FALLS   SUNNY     79  50  36 NW13G24   30.05F
LITCHFIELD     SUNNY     82  55  39 W14G21    30.10S
BUFFALO        SUNNY     82  55  40 W16       30.08S
MAPLE LAKE     SUNNY     81  59  47 W13       30.08S
$$
MNZ037-044-045-052-053-302000-
   East Central Minnesota

CITY           SKY/WX    TMP DP  RH WIND       PRES   REMARKS
PRINCETON      SUNNY     82  57  42 W15G24    30.04F
MORA           SUNNY     79  52  38 W14G24    30.03F
CAMBRIDGE      MOSUNNY   82  63  51 W12G17    30.02S
RUSH CITY      MOSUNNY   81  59  46 W8G17     30.02F
MOOSE LAKE     MOSUNNY   79  54  41 NW12G20   29.96F
HINCKLEY       FAIR      79  59  50 W15G21    30.00F
CLOQUET        MOSUNNY   81  46  30 W20G30    29.96F
MCGREGOR       MOSUNNY   81  54  39 W14G21    29.99S
$$
MNZ071>073-080-081-089-090-097-098-302000-
   Southwest Minnesota

CITY           SKY/WX    TMP DP  RH WIND       PRES   REMARKS
MONTEVIDEO     SUNNY     84  59  42 N9        30.12F
GRANITE FALLS  SUNNY     82  59  44 W5        30.13S
CANBY          SUNNY     84  50  30 NW8       30.13S
MARSHALL       SUNNY     82  52  34 N7        30.14F
REDWOOD FALLS  SUNNY     84  55  36 W10       30.11S
OLIVIA         SUNNY     79  55  44 W9G17     30.10F
PIPESTONE      SUNNY     82  55  39 NW8       30.16S
WINDOM         SUNNY     82  57  42 NW6       30.14F
WORTHINGTON    SUNNY     82  55  39 W7        30.16S
JACKSON        SUNNY     82  59  44 N3        30.15S
TRACY          SUNNY     82  54  36 W3        30.14S
SLAYTON        SUNNY     83  53  34 CALM      30.16F
$$
MNZ065>067-074>077-082>085-091>093-302000-
   South Central Minnesota

CITY           SKY/WX    TMP DP  RH WIND       PRES   REMARKS
MANKATO        SUNNY     82  54  36 NW13G20   30.10S
NEW ULM        SUNNY     82  52  34 NW12      30.11S
ST JAMES       SUNNY     84  57  39 W9        30.13S
FAIRMONT       SUNNY     82  55  39 NW12      30.13S
GLENCOE        SUNNY     82  60  47 W13G18    30.09S
FARIBAULT      SUNNY     81  59  47 W12       30.10S
OWATONNA       SUNNY     81  55  41 NW15G21   30.10F
WASECA         SUNNY     79  59  50 W10       30.12S
ALBERT LEA     SUNNY     81  55  41 NW9G21    30.12S
$$
MNZ078>079-086>088-094>096-302000-
   Southeast Minnesota

CITY           SKY/WX    TMP DP  RH WIND       PRES   REMARKS
ROCHESTER      SUNNY     79  59  50 NW18      30.10S
RED WING       SUNNY     84  52  32 NW14G21   30.03F
STANTON        SUNNY     82  57  42 W13G18    30.06F
DODGE CENTER   SUNNY     81  54  39 NW16      30.11S
WINONA         SUNNY     82  50  32 W14G20    30.05S
AUSTIN         SUNNY     82  54  36 NW20G26   30.11S
PRESTON        SUNNY     81  57  43 W17G26    30.10F
$$
ABBREVIATIONS USED IN REMARKS
   TC - TEMPERATURES IN CELSIUS
  WCI - WIND CHILL INDEX
   HX - HEAT INDEX
  VSB - VISIBILITY
$$


USA.gov is the U.S. government's official web portal to all federal, state and local government web resources and services.